Regional Weather Roundup
Issued by NWS

Home | Current Version | Previous Version | Graphics & Text | Print | Product List | Glossary On
Versions: 1 2 3 4 5 6 7 8 9 10 11 12 13 14 15 16 17 18 19 20 21 22 23 24 25 26 27 28 29 30 31 32 33 34 35 36 37 38 39 40 41 42 43 44 45 46 47 48 49 50
000
ASUS43 KFSD 280810
RWRSD

WEATHER ROUNDUP FOR SOUTH DAKOTA
NATIONAL WEATHER SERVICE SIOUX FALLS SD
300 AM CDT SAT MAY 28 2016

NOTE: "FAIR" INDICATES FEW OR NO CLOUDS BELOW 12,000 FEET WITH NO
SIGNIFICANT WEATHER AND/OR OBSTRUCTIONS TO VISIBILITY.


SDZ001>005-009-010-012>017-280900-
NORTHWEST AND NORTH CENTRAL SOUTH DAKOTA

CITY           SKY/WX    TMP DP  RH WIND       PRES   REMARKS
BUFFALO          N/A     51  44  77 S3        29.80S
FAITH            N/A     50  45  83 N7        29.84S
MOBRIDGE       CLOUDY    57  52  83 N5        29.79F
$$

SDZ012>016-024>037-041>051-057-063-072>074-280900-
SOUTHWEST AND SOUTH CENTRAL SOUTH DAKOTA

CITY           SKY/WX    TMP DP  RH WIND       PRES   REMARKS
RAPID CTY ARPT CLEAR     44  42  93 NW7       29.86S
PIERRE         CLOUDY    58  53  84 NW8       29.79S
CUSTER         MOCLDY    42  38  85 NW7       29.93S
ELLSWORTH AFB  CLEAR     49  45  84 NW6       29.85F
PHILIP         PTCLDY    49  48  97 W6        29.83S
PINE RIDGE     CLEAR     43  40  89 CALM      29.86F
WINNER         PTSUNNY   58  54  86 NW5       29.80R
$$

SDZ004>011-016>023-039-040-280900-
NORTHEAST SOUTH DAKOTA

CITY           SKY/WX    TMP DP  RH WIND       PRES   REMARKS
ABERDEEN       CLOUDY    60  57  89 N7        29.79S
WATERTOWN      CLOUDY    61  58  90 E5        29.77R
BROOKINGS      CLOUDY    60  58  92 NE3       29.75F
SISSETON         N/A     60  57  89 CALM      29.77S
$$

SDZ017-020-022-023-036>040-048>070-280900-
SOUTHEAST SOUTH DAKOTA

CITY           SKY/WX    TMP DP  RH WIND       PRES   REMARKS
SIOUX FALLS    LGT RAIN  63  58  83 NE6       29.72F
HURON          CLOUDY    57  56  96 N6        29.75F
CHAMBERLAIN    CLOUDY    61  58  91 N8        29.78S
MITCHELL       CLOUDY    61  58  90 N6        29.74F
YANKTON        CLOUDY    61  57  88 NW6       29.71S
$$

ABBREVIATIONS USED IN REMARKS
   TC - TEMPERATURE IN CELSIUS
  WCI - WIND CHILL INDEX
   HX - HEAT INDEX
  VSB - VISIBILITY




USA.gov is the U.S. government's official web portal to all federal, state and local government web resources and services.